This demonstration page uses our WeatherBlox Daily Observations layout. Learn more.

36.17497, -115.13722

Hourly Observations for November 30, 2018

Temp ( °F °C ) Dew Point ( °F °C ) Humidity (%) Winds ( mph kmh ) Pressure ( in mb ) Visibility ( mi km ) Precip ( " mm )
12:53 am 00:53 Clear 50 10 38 3.3 63 63 WNW 8 13 29.65 1004 10 16.09344 0 0
1:53 am 01:53 Clear 48 8.9 38 3.3 68 68 NW 5 7 29.65 1004 10 16.09344 0 0
2:53 am 02:53 Clear 47 8.3 38 3.3 71 71 N 5 7 29.68 1005 10 16.09344 0 0
3:53 am 03:53 Clear 45 7.2 37 2.8 74 74 NNW 6 9 29.71 1006 10 16.09344 0 0
4:53 am 04:53 Clear 44 6.7 36 2.2 73 73 WNW 5 7 29.74 1007 10 16.09344 0 0
5:53 am 05:53 Clear 44 6.7 36 2.2 73 73 NW 3 6 29.77 1008 10 16.09344 0 0
6:53 am 06:53 Sunny 43 6.1 36 2.2 76 76 WNW 6 9 29.8 1009 10 16.09344 0 0
7:53 am 07:53 Sunny 46 7.8 39 3.9 77 77 N 6 9 29.8 1009 10 16.09344 0 0
8:53 am 08:53 Sunny 52 11.1 40 4.4 64 64 SSW 3 6 29.83 1010 10 16.09344 0 0
9:53 am 09:53 Sunny 56 13.3 39 3.9 53 53 NNW 12 19 29.85 1011 10 16.09344 0 0
10:53 am 10:53 Sunny 57 13.9 38 3.3 49 49 N 6 9 29.85 1011 10 16.09344 0 0
11:53 am 11:53 Sunny 59 15 39 3.9 48 48 N 8 13 29.83 1010 10 16.09344 0 0
12:53 pm 12:53 Sunny 58 14.4 37 2.8 46 46 Calm 29.83 1010 10 16.09344 0 0
1:53 pm 13:53 Mostly Sunny 60 15.6 36 2.2 41 41 NNW 12 19 29.83 1010 10 16.09344 0 0
2:53 pm 14:53 Sunny 62 16.7 33 0.6 34 34 N 6 9 29.83 1010 10 16.09344 0 0
3:53 pm 15:53 Sunny 60 15.6 33 0.6 36 36 W 6 9 29.85 1011 10 16.09344 0 0
4:53 pm 16:53 Clear 58 14.4 34 1.1 41 41 W 5 7 29.85 1011 10 16.09344 0 0
5:53 pm 17:53 Clear 55 12.8 35 1.7 47 47 Calm 29.88 1012 10 16.09344 0 0
6:53 pm 18:53 Clear 54 12.2 33 0.6 45 45 N 5 7 29.91 1013 10 16.09344 0 0
7:53 pm 19:53 Clear 55 12.8 33 0.6 44 44 NNW 10 17 29.91 1013 10 16.09344 0 0
8:53 pm 20:53 Clear 52 11.1 32 0 47 47 NW 7 11 29.91 1013 10 16.09344 0 0
9:53 pm 21:53 Clear 54 12.2 31 -0.6 42 42 WNW 6 9 29.91 1013 10 16.09344 0 0
10:53 pm 22:53 Clear 53 11.7 34 1.1 48 48 NNW 14 22 29.91 1013 10 16.09344 0 0
11:53 pm 23:53 Mostly Clear 53 11.7 29 -1.7 40 40 NNW 17 28 29.94 1014 10 16.09344 0 0

Powered by AerisWeather